Regional Weather Roundup
Issued by NWS Wakefield, VA

Home | Current Version | Previous Version | Text Only | Print | Product List | Glossary Off
Versions: 1 2 3 4 5 6 7 8 9 10 11 12 13 14 15 16 17 18 19 20 21 22 23 24 25 26 27 28 29 30 31 32 33 34 35 36 37 38 39 40 41 42 43 44 45 46 47 48 49 50

000
ASUS41 KAKQ 280610
RWRAKQ

REGIONAL WEATHER ROUNDUP
NATIONAL WEATHER SERVICE WAKEFIELD VA
100 AM EST WED JAN 28 2015

Note: "fair" indicates few or no clouds below 12,000 feet with no
significant weather and/or obstructions to visibility. * = Denotes
station may not report precipitation (e.g., rain,snow,etc.),
thunder or fog.

VAZ042-051-052>054-056-280700-
NORTHERN VIRGINIA

CITY           SKY/WX    TMP DP  RH WIND       PRES   REMARKS
WASH NATIONAL  PTCLDY    29  14  53 NW17G25   30.01R WCI  17
DULLES         PTCLDY    25  13  60 NW20G26   30.01R WCI  11
FORT BELVOIR   CLEAR     27  14  56 NW15      30.02R WCI  16
QUANTICO       PTCLDY    28  13  53 N14G28    30.03R WCI  17
FREDERICKSBRG* CLEAR     30  16  57 NW17G23   30.01R WCI  18
STAFFORD*      PTCLDY    27  14  58 NW20G26   30.05R WCI  14
WARRENTON      CLEAR     28  19  68 NW12G20   30.01R WCI  18
CULPEPER*      NOT AVBL
MANASSAS*      CLEAR     27  18  69 NW15G22   30.02R WCI  15
LEESBURG*      CLEAR     27  18  69 NW20G31   30.02R WCI  13
WINCHESTER     CLEAR     25  12  58 NW8G16    30.05R
FRONT ROYAL*   MOCLDY    27  14  59 NW5       30.04R
LURAY*         FAIR      28  18  64 N5        30.04R
$$

VAZ048-049-060>072-079>083-280700-
CENTRAL AND SOUTH CENTRAL VIRGINIA

CITY           SKY/WX    TMP DP  RH WIND       PRES   REMARKS
RICHMOND       PTCLDY    30  19  63 N12       29.99R WCI  20
CHESTERFIELD*  MOCLDY    30  12  47 N7        30.00R
PETERSBURG*    CLOUDY    32  23  67 NW5       30.00R
HANOVER        PTCLDY    29  17  61 NW8       30.01R
TAPPAHANNOCK*  PTCLDY    30  13  49 NW9       29.99R
QUINTON*       FAIR      29  18  61 NW6       29.99R
CHARLOTTSVILLE CLOUDY    29  13  51 NW7       30.00R
GORDONSVILLE*  CLOUDY    27  20  73 CALM      30.00R
ORANGE*        CLOUDY    30  19  64 CALM      30.02R
LOUISA*        CLOUDY    28  19  69 CALM      29.99R
BUMPASS*       CLOUDY    29  18  63 N5        30.00R
FARMVILLE*     CLOUDY    32  17  54 CALM      29.99R
CREWE*         CLOUDY    30  16  55 NW7       29.99R
FORT PICKETT*  CLOUDY    30  17  58 NW6       29.99R
CHASE CITY*    CLOUDY    30  18  59 W6        30.00R
CLARKSVILLE*   MOCLDY    28  14  54 W6        30.01R
SOUTH HILL*    CLOUDY    30  17  58 NW6       30.04R
LAWRENCEVILLE* CLOUDY    31  19  59 NW6       29.98R
EMPORIA*       CLOUDY    32  23  69 W5        30.01R
$$

VAZ088>098-280700-
SOUTHEAST VIRGINIA

CITY           SKY/WX    TMP DP  RH WIND       PRES   REMARKS
NORFOLK        CLOUDY    33  19  56 N12G22    29.95R WCI  24
VIRGINIA BEACH MOCLDY    34  22  61 N13G22    29.93R WCI  25
NORFOLK NAVAL  MOCLDY    35  19  52 NW15      29.97R
WEST POINT*    CLOUDY    33  16  49 NW10G16   30.00R WCI  25
SALUDA*        CLOUDY    30  19  61 NW13G22   29.96R WCI  20
NEWPORT NEWS   CLOUDY    34  19  54 NW9       29.96R
LANGLEY AFB    CLOUDY    32  19  59 N12       29.96R WCI  23
FORT EUSTIS    CLOUDY    32  21  65 N12       29.95R WCI  23
WILLIAMSBURG*    N/A     34  21  60 N9        29.98R
HR EXEC AP*    CLOUDY    30  18  59 NW8       29.98R
FRANKLIN*      CLOUDY    32  22  66 N6        29.98S
WAKEFIELD      MOCLDY    32  20  61 N5        29.98R
$$

VAZ020-022-025-037-045-280700-
WEST CENTRAL AND SOUTHWEST VIRGINIA

CITY           SKY/WX    TMP DP  RH WIND       PRES   REMARKS
STAUNTON*      CLEAR     21  14  73 CALM      30.04R
WAYNESBORO*    FAIR      20  12  72 W6        30.00R
HOT SPRINGS VA MOCLDY    12   9  86 NW21      29.85R WCI  -7
LYNCHBURG      CLOUDY    26  12  55 VRB7      30.00S
DANVILLE       CLEAR     27  11  51 NW10G21   30.03S WCI  17
SOUTH BOSTON*  FAIR      27  12  52 NW8       30.02R
MARTINSVILLE   CLEAR     27  14  58 NW10      30.05R WCI  17
ROANOKE        PTCLDY    24  11  57 NW13G22   30.07R WCI  12
BLACKSBURG     CLOUDY    19  11  70 NW10      30.05R WCI   8
DUBLIN*        CLOUDY    22  15  72 N6        30.05R
MARION*        CLOUDY    21  11  66 W21G26    30.06R WCI   5
HILLSVILLE*    CLOUDY    19  12  74 N16       29.98R WCI   5
RICHLANDS*     FLURRIES  18  10  73 NW7       30.06S
WISE*          CLEAR     19  12  73 NW6       30.08S
ABINGDON*      CLEAR     24  14  65 NW6       30.10S
$$

MDZ021>025-VAZ099-100-280700-
SOUTHERN MARYLAND AND THE DELMARVA PENINSULA

CITY           SKY/WX    TMP DP  RH WIND       PRES   REMARKS
PATUXENT RIVER CLEAR     29  16  58 NW20G29   29.96R WCI  16
BAY BRIDGE APT   N/A     30  10  43 NW20G25   29.98R WCI  18
LEONARDTOWN    CLEAR     28  16  59 NW9G18    29.98R
DOVER          CLEAR     23  10  58 NW18G25   29.93R WCI   8
GEORGETOWN     CLEAR     28   8  43 N10G22    29.91R WCI  19
EASTON         CLEAR     29  13  50 N15G24    29.99R WCI  18
CAMBRIDGE      CLEAR     32  16  51 NW13G23   29.94R WCI  22
SALISBURY      CLEAR     31  15  52 NW14      29.91R WCI  21
OCEAN CITY     CLEAR     28  16  60 NW13      29.89R WCI  17
WALLOPS ISLAND CLEAR     29  17  61 NW12      29.92R WCI  19
ACCOMACK*      CLEAR     32  18  55 NW15G26   29.93R WCI  22
$$

NCZ012>017-030>032-280700-
NORTH CENTRAL AND EASTERN NORTH CAROLINA

CITY           SKY/WX    TMP DP  RH WIND       PRES   REMARKS
ROANOKE RAPIDS CLOUDY    32  21  64 NW8       29.98S
RALEIGH        PTCLDY    29  12  49 VRB6      30.02R
ELIZABETH CITY CLOUDY    34  23  64 NW15      29.95R WCI  24
AHOSKIE*       CLOUDY    33  26  75 NW3       29.98R
EDENTON*       CLOUDY    34  30  85 NW8       29.96R
CURRITUCK*     PTCLDY    33  22  63 NW9       29.95R
KILL DEVIL HLS CLOUDY    34  25  70 NW9       29.92R
MANTEO         CLOUDY    36  25  64 N12G21    29.94R
CAPE HATTERAS  CLOUDY    36  29  75 VRB6      29.92R
TARBORO*       CLOUDY    33  24  71 NW8       30.00R
GOLDSBORO      CLEAR     31  28  90 NW1       29.98R
WASHINGTON     CLOUDY    33  28  83 NW5       29.98R
GREENVILLE     CLEAR     32  27  80 NW3       30.00R
NEW BERN       CLEAR     30  26  85 W3        29.98R
WILMINGTON     CLEAR     31  23  72 NW9       29.98R
$$

VAZ048-280700-
ELSEWHERE

CITY           SKY/WX    TMP DP  RH WIND       PRES   REMARKS
HARRISBURG PA  MOCLDY    19   5  54 NW13      30.01R WCI   6
BALTIMORE      PTCLDY    26  10  50 NW13G20   29.98R WCI  15
ANNAPOLIS      FAIR      29  14  53 NW16G26   29.98R WCI  17
ANDREWS AFB    CLEAR     26  14  61 NW15      29.98R WCI  14
PHILADELPHIA   MOCLDY    21   7  54 NW12      29.94R WCI   9
HENDERSON NC   PTCLDY    28  12  53 NW5       30.01R
GREENSBORO     CLEAR     28  10  46 NW6       30.01R
ROCKY MOUNT    CLEAR     29  22  75 NW6       30.00R
$$

VAZ100-280700-
MARINE

STATION/POSITION TIME  TEMP    WIND        PRES    WAVE   SWELL
                       AIR SEA DIR/SP/G            HT/PER HT/PER
                 (UTC) (F)     (DEG/KT/KT) (MB)    (FT/S) (FT/S)
BRANDYWINE LGT   0600   27 36  340/ 21/ 30 1012.3R
CAPE MAY NJ      0600   27 37  360/  1/  5 1011.8R
LEWES DE         0600   28 35  330/ 25/ 29 1012.5R
15NM E FENWICK I 0600   31 41              1010.5R   8/12
OCEAN-CITY-INLET 0600   30 38  340/ 10/ 14 1011.7S
WACHAPREAGUE VA  0600   31 39  320/  6/ 17 1013.1R
THOMAS POINT MD  0600   29 36  330/ 19/ 25 1015.8R
GOOSES REEF MD   0600   30 37  VRB 21/ 27  1013.7R   3/ 3
COVE POINT MD    0600   29     350/ 24/ 29 1014.2R
SOLOMONS ISLAND  0600      38                N/A
BISHOPS HEAD MD  0600   29 35  330/ 14/ 16 1013.5R
PINEY POINT MD   0600          350/ 21/ 25   N/A
POTOMAC MD       0600   31 38  350/ 17/ 19 1013.7R   2/ 3
CAMBRIDGE MD     0600   31 36  320/ 18/ 27 1013.7R
LEWISETTA VA     0600   30 37  340/ 16/ 25 1014.5R
RAPPAHANNOCK LGT 0600          330/ 26/ 29 1014.1R
STINGRAY PT      0600   31 39  340/ 17/ 21 1014.7R   2/ 3
YORK RVR RNG VA  0600   33     340/ 20/ 23 1013.6S
YORKTOWN VA      0600   33 40  330/ 15/ 18 1014.3R
JAMESTOWN VA     0600   31 41  360/ 12/ 17   N/A     0
DOMINION TERM VA 0600   33     340/ 13/ 18 1014.3R
KIPTOPEKE VA     0600      44  350/ 20/ 25   N/A
CHES BAY BRIDGE  0600   34 41  320/ 20/ 24 1013.5S
CAPE HENRY VA    0600   33     330/ 22/ 26 1012.3S
CHESAPEAKE LGHT  0500   34     330/ 23/ 24 1013.4R
WILLOUBY STN VA  0600   33     330/ 15/ 19 1014.7R
S CRANEY ISL VA  0600          330/ 10/ 15 1014.2R
CAPE HENRY BUOY  0600      44                N/A     6/13   3/13
1ST LANDING BUOY 0600   35 41  330/ 21/ 25 1013.5R   3/ 4
CAPE CHARLES BUO 0600      42                N/A     5/13   5/13
OFFSHORE WE BUOY 0600      45                N/A     8/13   7/13
64NM E OF VA BCH 0600   38 52  350/ 23/ 29 1010.9R  11/12  10/12
DUCK PIER NC     0600   35 42  340/ 18/ 21 1012.3S
44100 DUCK FRF   0500      45                N/A     9/13   5/13
44056 DUCK FRF   0600      43                N/A     7/13   5/13
OREGON INLET NC  0600   35 44  320/ 11/ 15 1013.1R



USA.gov is the U.S. government's official web portal to all federal, state and local government web resources and services.